Weather History for Long Beach, CA

Change the Weather History Date:

Friday, October 19, 2012

  Actual Average Record
Temperature  
Mean Temperature 72 °F 67 °F  
Max Temperature 78 °F 77 °F 95 °F (1964)
Min Temperature 66 °F 58 °F 49 °F (1980)
Degree Days  
Heating Degree Days 0 1  
Month to date heating degree days 1 3  
Since 1 July heating degree days 1 4  
Cooling Degree Days 7 3  
Month to date cooling degree days 141 76  
Year to date cooling degree days 1310 1075  
Growing Degree Days 22 (Base 50)    
Moisture  
Dew Point 62 °F    
Average Humidity 74    
Maximum Humidity 87    
Minimum Humidity 60    
Precipitation  
Precipitation 0.00 in 0.02 in 0.61 in (2010)
Month to date precipitation 0.30 0.32  
Year to date precipitation 4.75 9.00  
Since 1 July precipitation 0.34 0.56  
Sea Level Pressure  
Sea Level Pressure 29.95 in    
Wind  
Wind Speed 4 mph (WNW)    
Max Wind Speed 16 mph    
Max Gust Speed 18 mph    
Visibility 10 miles    
Events      
T = Trace of Precipitation, MM = Missing Value Source: NWS Daily Summary

Daily Weather History Graph

Daily Weather History Graph

Search for Another Location

Airport:

Trip Planner

Search our weather history database for the weather conditions in past years. The results will help you decide how hot, cold, wet, or windy it might be!

Date:

Astronomy

Oct. 19, 2012 Rise Set
Actual Time 7:01 AM PDT 6:13 PM PDT
Civil Twilight 6:35 AM PDT 6:38 PM PDT
Nautical Twilight 6:06 AM PDT 7:07 PM PDT
Astronomical Twilight 5:37 AM PDT 7:36 PM PDT
Moon 11:39 AM PDT (10/19) 10:05 PM PDT (10/19)
Length of Visible Light 12h 02m
Length of Day
11h 11m
Waxing Crescent, 24% of the Moon is Illuminated
Oct 19
Waxing Crescent
Oct 21
First Quarter
Oct 29
Full
Nov 6
Last Quarter
Nov 13
New

Hourly Weather History & Observations

Time (PDT) Temp. Dew Point Humidity Pressure Visibility Wind Dir Wind Speed Gust Speed Precip Events Conditions
12:38 AM 69.8 °F 64.4 °F 83% 30.01 in 10.0 mi NW 4.6 mph - N/A   Mostly Cloudy
12:53 AM 69.1 °F 64.0 °F 84% 30.01 in 10.0 mi NW 4.6 mph - N/A   Mostly Cloudy
1:00 AM 69.8 °F 64.4 °F 83% 30.01 in 10.0 mi NW 3.5 mph - N/A   Scattered Clouds
1:29 AM 69.8 °F 64.4 °F 83% 30.01 in 10.0 mi NW 4.6 mph - N/A   Mostly Cloudy
1:53 AM 69.1 °F 64.0 °F 84% 30.01 in 10.0 mi NW 6.9 mph - N/A   Overcast
2:23 AM 68.0 °F 62.6 °F 83% 30.00 in 10.0 mi NNW 3.5 mph - N/A   Partly Cloudy
2:45 AM 68.0 °F 62.6 °F 83% 30.00 in 10.0 mi Calm Calm - N/A   Mostly Cloudy
2:53 AM 68.0 °F 63.0 °F 84% 30.00 in 10.0 mi Calm Calm - N/A   Mostly Cloudy
3:05 AM 68.0 °F 62.6 °F 83% 29.99 in 10.0 mi Calm Calm - N/A   Scattered Clouds
3:53 AM 66.9 °F 63.0 °F 87% 29.97 in 10.0 mi Calm Calm - N/A   Clear
4:53 AM 66.0 °F 62.1 °F 87% 29.97 in 9.0 mi Calm Calm - N/A   Clear
5:53 AM 66.0 °F 63.0 °F 90% 29.97 in 9.0 mi Calm Calm - N/A   Clear
6:53 AM 66.0 °F 63.0 °F 90% 29.97 in 9.0 mi Calm Calm - N/A   Clear
7:19 AM 66.2 °F 62.6 °F 88% 29.97 in 8.0 mi Calm Calm - N/A   Partly Cloudy
7:53 AM 66.9 °F 63.0 °F 87% 29.99 in 8.0 mi Calm Calm - N/A   Partly Cloudy
8:53 AM 71.1 °F 63.0 °F 75% 30.00 in 9.0 mi NNW 4.6 mph - N/A   Clear
9:53 AM 73.9 °F 63.0 °F 68% 29.99 in 10.0 mi Calm Calm - N/A   Scattered Clouds
10:00 AM 73.4 °F 62.6 °F 69% 29.99 in 10.0 mi SSW 5.8 mph - N/A   Mostly Cloudy
10:53 AM 73.0 °F 63.0 °F 71% 29.98 in 10.0 mi SSE 5.8 mph - N/A   Mostly Cloudy
11:02 AM 73.4 °F 62.6 °F 69% 29.98 in 10.0 mi Calm Calm - N/A   Scattered Clouds
11:53 AM 75.9 °F 63.0 °F 64% 29.96 in 10.0 mi Calm Calm - N/A   Partly Cloudy
12:53 PM 77.0 °F 62.1 °F 60% 29.94 in 10.0 mi WNW 11.5 mph - N/A   Clear
1:53 PM 75.0 °F 62.1 °F 64% 29.92 in 10.0 mi West 9.2 mph - N/A   Clear
2:53 PM 75.9 °F 62.1 °F 62% 29.90 in 10.0 mi West 11.5 mph - N/A   Clear
3:53 PM 73.9 °F 61.0 °F 64% 29.89 in 10.0 mi WNW 11.5 mph - N/A   Partly Cloudy
4:53 PM 72.0 °F 61.0 °F 68% 29.88 in 10.0 mi NW 11.5 mph - N/A   Partly Cloudy
5:31 PM 69.8 °F 60.8 °F 73% 29.89 in 10.0 mi WNW 11.5 mph - N/A   Mostly Cloudy
5:53 PM 69.1 °F 61.0 °F 75% 29.89 in 10.0 mi WNW 10.4 mph - N/A   Mostly Cloudy
6:53 PM 69.1 °F 61.0 °F 75% 29.89 in 10.0 mi NW 8.1 mph - N/A   Mostly Cloudy
7:00 PM 68.0 °F 60.8 °F 78% 29.90 in 10.0 mi NW 8.1 mph - N/A   Overcast
7:53 PM 68.0 °F 61.0 °F 78% 29.90 in 10.0 mi NW 5.8 mph - N/A   Overcast
8:53 PM 68.0 °F 61.0 °F 78% 29.91 in 9.0 mi Calm Calm - N/A   Overcast
9:53 PM 68.0 °F 61.0 °F 78% 29.91 in 9.0 mi Variable 3.5 mph - N/A   Overcast
10:53 PM 69.1 °F 61.0 °F 75% 29.91 in 8.0 mi Calm Calm - N/A   Overcast
11:53 PM 69.1 °F 61.0 °F 75% 29.90 in 8.0 mi Calm Calm - N/A   Overcast